Theta_e
320 320 321 322 322 324 325 325 325 325 325 325 325 326 326 326 325 315 307 315 317 328 321 310 308 307 307 306 306 303 292 290 293 294 295 298 296 298 299 297 298 302 298 300 303
318 318 319 319 320 321 323 324 324 324 324 324 324 325 326 325 315 309 320 334 331 328 311 306 304 304 301 303 303 299 292 294 298 296 294 297 297 298 296 295 296 298 298 301 301
318 317 318 318 319 320 321 322 322 323 324 324 324 324 324 322 310 308 330 332 331 325 311 307 306 305 300 302 300 298 294 298 299 299 299 297 296 299 296 295 296 298 297 299 297
317 317 317 317 317 319 320 321 321 322 323 323 324 324 323 317 291 310 329 329 328 314 309 305 303 301 298 298 302 296 300 301 302 300 299 296 298 297 297 299 301 300 301 299 297
317 317 317 316 317 318 319 319 320 321 322 322 323 324 317 304 304 315 325 324 313 311 305 303 300 300 297 298 299 297 298 301 301 300 299 299 297 296 297 299 301 301 300 298 298
317 317 317 317 316 317 318 318 319 319 321 321 323 323 306 297 309 313 308 310 309 306 303 303 302 302 299 299 295 297 298 299 299 299 299 298 295 297 297 300 299 299 298 298 299
318 317 316 317 316 316 317 317 318 319 320 321 323 319 307 300 309 309 307 306 306 305 303 303 304 301 299 298 300 298 295 295 296 298 297 297 294 295 301 298 298 298 298 297 298
317 316 316 316 316 317 317 318 318 319 320 322 324 314 298 310 306 307 306 304 305 305 305 305 304 303 300 300 297 292 291 288 294 296 297 297 290 296 300 297 297 297 296 296 298
317 316 316 317 317 317 317 317 318 319 321 323 314 308 300 314 307 308 306 304 304 304 305 307 305 299 298 292 289 289 285 287 292 297 295 294 291 295 298 296 296 295 296 297 297
317 316 316 317 317 317 317 318 317 318 317 319 315 301 303 301 307 306 304 305 302 302 301 300 297 293 292 289 284 285 286 289 289 293 292 291 292 296 296 294 295 294 295 297 298
317 316 317 317 317 318 314 306 300 299 303 298 299 300 302 306 307 304 304 303 303 299 292 295 289 288 291 293 293 289 288 287 291 295 293 292 293 295 298 294 295 298 298 297 298
318 317 317 317 318 318 309 301 301 301 292 300 300 302 305 306 300 303 304 297 296 291 293 291 288 294 294 294 293 291 290 289 292 295 292 291 291 295 295 297 295 297 298 299 300
318 317 317 317 317 311 304 302 307 306 294 298 299 297 298 304 299 300 301 297 293 291 292 290 291 297 295 293 291 291 288 290 289 291 290 288 287 290 294 296 297 298 299 300 300
318 317 317 316 310 306 302 305 306 304 284 290 294 299 301 300 294 302 301 298 293 291 291 290 295 294 291 291 293 289 292 291 290 286 284 287 283 287 291 293 295 297 297 298 298
318 317 317 315 305 303 305 306 303 298 275 292 294 303 301 294 294 295 298 296 291 291 291 289 289 290 290 292 292 291 291 289 287 285 283 285 282 285 291 289 292 295 297 298 296
318 318 316 311 306 307 307 304 299 283 276 288 294 293 293 295 294 294 294 296 295 291 291 290 292 291 292 291 292 291 288 287 285 283 279 284 285 284 285 291 291 296 297 297 297
318 317 313 314 307 308 306 299 287 280 290 289 290 293 291 291 291 291 289 288 286 283 282 287 289 292 292 288 289 289 285 278 276 275 278 285 283 288 290 292 294 295 296 297 294
317 317 314 314 310 308 306 295 284 290 288 293 291 291 289 291 291 290 287 285 288 286 284 283 283 288 291 292 287 286 288 279 273 275 282 281 279 285 293 296 294 295 295 293 293
316 314 312 313 313 309 300 287 291 292 297 296 297 289 287 290 290 289 286 286 288 290 285 284 284 288 289 290 292 285 283 290 282 273 275 283 285 290 290 291 291 292 291 291 292
312 310 309 313 312 305 293 292 293 298 299 297 291 292 289 287 287 290 288 290 290 292 294 289 284 288 286 287 287 287 288 281 282 275 271 280 281 285 286 292 293 289 290 290 291
308 302 308 312 309 298 288 291 296 299 299 296 294 293 290 290 288 288 288 289 291 291 293 290 288 286 285 284 285 283 284 285 285 282 280 279 283 288 288 291 290 290 290 290 291
305 295 309 310 296 295 292 294 298 297 299 298 294 293 293 294 293 292 291 291 294 293 289 291 288 283 285 288 288 288 289 288 283 281 280 281 283 293 291 290 291 291 291 291 292
298 300 306 306 291 292 293 294 296 295 296 296 294 294 296 292 288 291 293 298 299 296 291 292 285 281 282 287 284 284 285 287 287 284 282 279 282 293 293 290 290 289 290 290 291
294 290 296 298 299 295 293 292 291 296 295 296 295 295 293 291 293 289 289 292 293 293 297 295 285 284 281 285 287 285 285 285 285 280 282 282 285 290 292 293 295 296 298 296 295
291 286 291 286 291 293 294 293 291 290 295 296 293 293 292 289 290 289 292 292 292 294 293 292 283 285 287 288 289 287 287 287 285 286 282 284 285 288 291 293 294 296 296 295 293
286 285 290 286 289 289 290 289 289 289 291 290 290 292 291 289 291 289 291 291 290 287 289 290 284 287 284 286 286 284 287 287 287 287 287 287 287 294 296 297 296 296 296 295 295
289 291 289 284 282 282 282 286 287 288 288 291 287 284 284 287 290 289 290 289 290 290 290 288 284 284 281 285 284 280 285 286 287 289 288 283 288 293 293 294 295 295 297 296 296
Wind_Speed
17 17 18 19 19 19 19 17 16 15 13 13 13 12 9 7 7 2 6 8 6 13 7 5 3 3 1 2 2 2 3 4 6 3 3 5 4 3 3 2 1 6 3 3 15
16 17 18 18 18 19 19 19 18 17 15 14 13 11 10 8 2 8 8 11 14 11 6 7 4 5 1 3 2 4 3 7 5 3 2 3 5 7 2 4 4 3 3 7 16
15 16 17 18 18 19 19 19 18 17 16 15 14 13 9 5 3 7 3 11 11 8 2 3 2 6 4 3 4 5 7 5 4 3 4 2 2 7 7 7 9 13 9 11 10
14 15 17 17 18 19 19 19 19 17 17 15 14 13 10 1 6 2 7 9 8 5 1 3 3 4 4 5 6 5 9 8 6 2 0 3 4 4 9 11 8 12 13 17 17
12 13 14 15 17 18 19 19 20 19 16 17 14 11 2 1 11 5 7 6 6 6 5 5 4 4 5 5 3 7 5 7 7 6 5 2 10 7 13 10 11 8 10 17 17
7 9 10 11 15 17 19 20 19 18 18 17 15 7 2 6 2 9 8 5 4 5 5 6 6 6 5 6 4 3 3 7 6 8 6 7 5 4 9 9 14 10 11 14 18
8 9 10 12 15 18 20 21 20 18 17 16 10 4 4 15 5 8 9 6 3 4 3 5 3 4 1 4 3 3 7 9 8 9 9 6 11 15 25 4 9 12 12 11 18
8 9 10 12 14 17 20 22 22 20 16 9 4 3 9 1 4 7 5 1 2 3 3 1 4 1 3 3 4 3 2 4 2 7 5 10 19 11 16 10 17 13 10 10 15
8 9 10 13 15 17 21 25 24 19 7 1 4 3 9 1 4 7 7 5 3 1 2 2 5 6 1 4 4 4 7 9 11 11 8 7 12 8 8 10 14 11 13 12 12
8 9 10 13 15 18 22 25 12 6 3 3 3 3 5 4 1 2 3 6 3 5 2 2 2 3 1 5 11 9 7 8 10 4 3 7 16 18 10 5 10 10 11 13 15
9 9 10 13 15 19 12 7 6 3 2 8 8 6 3 3 1 2 1 4 3 2 7 6 5 11 23 17 10 5 7 7 12 8 7 15 17 21 18 8 15 20 17 15 18
9 10 10 13 14 20 3 5 3 2 9 8 15 9 10 8 5 6 7 7 6 8 3 3 12 19 4 7 12 11 18 19 13 15 10 10 18 15 11 17 14 19 19 20 20
10 9 9 13 14 4 2 2 3 3 3 10 8 7 8 9 8 8 13 6 7 6 11 18 10 14 14 11 10 16 11 18 15 9 5 9 12 12 12 14 14 15 19 19 23
10 9 7 14 2 4 1 3 3 2 3 9 3 2 3 3 6 1 10 9 6 13 8 11 15 15 7 8 15 20 10 11 9 3 15 6 26 10 9 15 16 20 18 21 20
9 9 4 2 4 3 3 3 2 3 7 6 3 3 0 5 2 3 2 3 5 4 7 11 3 7 13 24 9 19 5 9 5 6 6 7 10 5 11 11 12 16 18 20 15
10 8 7 1 2 4 2 4 2 6 9 5 3 3 3 1 0 3 3 3 1 3 6 11 0 3 9 3 6 2 2 1 2 1 14 10 13 4 7 13 8 17 17 18 12
9 8 9 2 3 2 0 2 3 6 5 5 6 5 3 6 4 6 5 5 5 2 4 4 14 12 5 3 2 4 5 5 5 1 14 11 13 21 10 8 15 17 18 18 9
7 7 7 5 5 4 4 4 10 6 9 2 1 5 8 9 7 7 5 5 7 4 3 3 15 11 8 20 11 11 14 8 9 9 18 4 10 8 16 17 11 14 13 9 8
6 1 3 5 5 2 3 7 9 7 6 7 11 5 6 6 8 6 8 6 9 18 11 5 10 2 3 1 10 3 7 19 3 2 3 10 14 11 5 9 10 16 10 8 9
1 3 4 8 11 5 3 15 6 7 4 3 7 7 13 4 1 5 6 4 6 15 20 8 12 5 1 1 0 5 1 2 3 4 8 11 11 18 6 19 18 9 12 10 8
2 4 2 14 6 3 8 11 10 8 4 7 14 17 12 9 9 9 11 7 6 2 5 4 6 9 4 8 9 1 5 5 3 4 16 19 17 6 8 9 11 12 9 9 8
3 5 7 12 4 4 10 7 7 13 6 11 7 14 16 16 19 18 22 15 8 4 4 4 3 3 11 7 7 8 17 17 12 13 5 6 16 13 10 6 7 5 7 6 9
3 3 4 3 9 10 4 8 7 15 19 8 10 11 16 19 13 18 19 16 21 19 7 7 5 6 6 13 5 8 7 7 6 1 17 16 22 4 14 10 5 6 10 9 8
3 3 3 3 5 14 16 15 16 11 18 16 15 10 13 16 16 9 11 7 7 7 13 13 9 12 16 18 9 11 11 6 5 3 16 22 27 32 29 26 24 24 25 22 17
2 5 1 4 9 12 13 12 20 18 14 12 10 25 24 25 23 23 25 25 11 8 8 12 12 19 28 32 31 31 29 30 26 24 19 30 19 28 35 23 31 24 23 14 9
3 2 3 5 6 4 2 7 12 13 7 17 15 15 16 20 25 30 25 22 23 5 15 9 17 16 22 26 29 30 30 31 33 32 31 34 36 39 38 36 34 30 25 17 18
3 2 1 4 2 2 5 6 5 10 6 7 13 15 15 15 11 21 17 16 18 16 18 14 10 16 27 21 23 22 34 35 34 30 24 29 36 36 33 33 34 29 21 18 20
Wind_Direction
21 16 11 7 3 1 359 359 358 358 358 353 350 344 336 327 304 212 235 215 170 161 164 149 199 225 315 263 207 68 50 255 258 230 206 175 155 317 153 138 224 206 173 214 138
15 11 7 5 358 355 353 350 348 347 345 345 343 342 336 332 231 246 236 137 145 154 143 167 185 185 210 227 195 119 158 236 226 308 321 209 174 180 175 215 231 223 40 117 143
10 5 2 359 353 351 348 344 340 338 337 336 335 333 334 327 321 247 150 147 152 159 172 189 199 168 201 168 212 200 215 222 285 341 17 302 262 186 179 240 207 207 181 171 167
2 360 356 353 350 345 342 338 333 330 327 326 325 324 324 190 277 185 153 152 151 157 213 182 198 166 214 217 207 223 239 246 278 219 196 252 293 254 199 226 215 222 188 173 180
351 349 348 345 341 337 334 331 327 323 320 320 319 317 301 239 250 153 146 152 145 149 195 189 180 190 217 222 277 214 248 263 258 227 226 265 255 247 264 255 245 228 155 187 197
333 330 331 336 332 329 326 322 317 314 315 317 315 306 212 240 173 151 153 156 191 175 199 187 206 209 255 243 201 243 253 265 267 252 242 198 256 162 259 232 242 239 220 196 201
327 328 327 324 324 324 321 315 308 304 305 310 303 241 242 237 164 157 154 193 207 192 223 229 187 170 294 282 289 289 307 310 229 233 223 130 285 229 251 232 248 241 234 208 216
315 318 314 312 311 313 313 309 304 302 301 295 246 227 245 61 137 143 179 202 230 202 182 311 98 178 211 283 331 253 221 287 230 172 200 131 266 228 247 195 234 241 240 228 224
304 311 310 306 306 307 309 303 300 293 264 181 137 182 263 12 190 203 157 183 163 158 59 91 112 192 239 120 338 242 239 218 300 185 148 173 251 263 255 196 236 232 235 236 239
287 297 304 304 306 309 313 303 294 307 190 186 257 31 276 257 212 167 196 152 142 123 63 167 153 190 216 129 223 217 224 249 232 198 147 196 249 267 263 278 244 241 237 238 241
282 291 301 306 312 317 337 353 9 7 330 198 188 216 188 191 29 207 216 105 98 156 191 210 139 213 225 207 233 222 260 243 268 252 178 227 234 249 259 230 246 258 259 245 238
273 280 293 303 314 319 349 40 72 240 303 271 259 241 228 164 214 221 135 162 171 215 173 273 220 229 269 209 235 244 258 267 277 263 199 247 244 251 254 252 227 233 243 247 252
270 275 291 304 312 349 335 90 300 14 252 283 220 225 248 163 231 217 153 176 187 206 211 221 226 220 224 240 266 244 243 259 266 297 246 293 265 237 248 249 253 248 243 254 249
262 270 286 303 9 326 30 313 4 57 16 269 234 237 35 125 270 13 198 164 220 221 206 241 238 237 199 222 216 257 227 243 248 257 269 147 292 229 238 248 247 250 251 245 247
252 250 240 352 287 333 286 329 329 91 322 262 221 317 50 160 32 12 353 351 239 202 138 239 221 217 231 234 206 259 215 246 219 230 312 177 274 195 196 240 249 245 244 253 242
253 240 167 175 233 250 346 330 54 49 256 279 156 187 108 26 22 11 59 17 247 292 264 243 32 247 210 170 189 185 127 260 18 69 263 188 207 225 194 214 240 246 250 254 250
257 241 162 197 255 140 56 3 358 203 295 224 218 167 179 194 205 177 168 176 194 290 240 299 230 218 152 185 284 169 90 305 321 330 253 183 218 251 296 266 223 229 237 241 228
302 243 205 199 170 128 26 61 241 197 211 3 183 159 186 167 234 190 176 225 237 195 295 246 287 158 184 209 189 201 206 184 204 248 280 116 245 253 216 236 232 235 230 223 177
335 171 175 213 148 96 101 216 229 165 223 337 335 277 221 223 216 160 204 216 217 186 197 218 261 258 126 129 163 184 173 229 317 100 17 263 270 294 267 261 254 239 232 207 201
287 212 195 168 140 114 138 244 244 232 44 47 266 228 263 217 210 200 206 196 241 189 211 226 258 232 70 292 282 178 299 78 231 209 246 259 265 264 282 275 260 263 225 214 209
223 253 173 139 119 183 216 229 240 203 208 230 252 253 249 269 242 251 217 285 230 217 222 336 279 252 132 201 178 150 254 230 284 202 253 263 270 219 217 262 273 249 235 228 208
224 238 155 152 193 195 228 214 234 254 237 249 254 262 254 262 255 250 250 234 215 135 142 135 301 300 262 259 244 261 235 229 236 262 227 254 258 279 257 202 242 262 261 247 215
261 210 221 217 223 231 233 255 243 259 245 218 231 227 249 255 266 245 249 253 252 247 204 157 208 222 260 287 237 208 213 225 256 56 251 260 262 298 275 317 311 305 308 296 273
294 248 185 230 236 235 246 244 245 233 258 248 250 250 231 232 235 242 256 271 210 213 180 156 199 216 240 240 288 259 261 212 183 223 266 256 270 277 267 271 279 272 260 252 241
225 256 281 220 241 241 245 266 261 269 247 255 231 229 242 254 243 242 246 258 235 179 186 192 227 219 230 237 247 252 254 256 249 245 242 257 251 264 268 267 264 271 269 264 253
269 298 13 304 308 304 224 248 263 285 260 273 268 299 303 268 265 267 263 243 232 213 212 203 245 233 236 231 236 241 247 254 253 252 253 249 257 253 265 270 270 268 272 282 258
283 34 113 273 336 331 254 277 268 319 263 329 348 329 308 303 315 303 286 280 286 289 268 225 224 227 244 224 233 237 235 244 248 244 244 243 239 253 259 260 267 275 285 262 258